| time (UTC) | temp F | wind direction | speed MPH | gust MPH | rain 1hr in | rain 24hr in | rain mn in | humidity % | barometer mb |
| 20260509062559 | 54 | 27 | 2.0 | 5.0 | 0.00 | 0.00 | 0.00 | 73 | 1017.8 |
| 20260509062058 | 54 | 44 | 2.0 | 6.0 | 0.00 | 0.00 | 0.00 | 75 | 1017.8 |
| 20260509061603 | 53 | 46 | 3.0 | 9.0 | 0.00 | 0.00 | 0.00 | 74 | 1017.7 |
| 20260509061057 | 53 | 90 | 3.0 | 9.0 | 0.00 | 0.00 | 0.00 | 74 | 1017.7 |
| 20260509060558 | 53 | 46 | 4.0 | 9.0 | 0.00 | 0.00 | 0.00 | 75 | 1017.6 |
| 20260509055559 | 52 | 41 | 4.0 | 9.0 | 0.00 | 0.00 | 0.00 | 76 | 1017.6 |
| 20260509055101 | 51 | 75 | 4.0 | 10.0 | 0.00 | 0.00 | 0.00 | 77 | 1017.5 |
| 20260509054610 | 51 | 53 | 4.0 | 10.0 | 0.00 | 0.00 | 0.00 | 78 | 1017.4 |
| 20260509054058 | 51 | 71 | 4.0 | 9.0 | 0.00 | 0.00 | 0.00 | 78 | 1017.5 |
| 20260509053558 | 50 | 62 | 3.0 | 9.0 | 0.00 | 0.00 | 0.00 | 78 | 1017.4 |
| 20260509053104 | 50 | 28 | 3.0 | 9.0 | 0.00 | 0.00 | 0.00 | 78 | 1017.5 |
| 20260509052559 | 50 | 62 | 4.0 | 9.0 | 0.00 | 0.00 | 0.00 | 78 | 1017.4 |
| 20260509052058 | 50 | 76 | 3.0 | 8.0 | 0.00 | 0.00 | 0.00 | 78 | 1017.3 |
| 20260509051604 | 49 | 19 | 3.0 | 8.0 | 0.00 | 0.00 | 0.00 | 79 | 1017.4 |
| 20260509051059 | 49 | 62 | 4.0 | 8.0 | 0.00 | 0.00 | 0.00 | 79 | 1017.3 |
| 20260509050557 | 49 | 46 | 4.0 | 6.0 | 0.00 | 0.00 | 0.00 | 80 | 1017.4 |
| 20260509050100 | 48 | 42 | 3.0 | 6.0 | 0.00 | 0.00 | 0.00 | 80 | 1017.3 |
| 20260509045558 | 48 | 40 | 2.0 | 5.0 | 0.00 | 0.00 | 0.00 | 81 | 1017.4 |
| 20260509045058 | 48 | 40 | 3.0 | 6.0 | 0.00 | 0.00 | 0.00 | 81 | 1017.4 |
| 20260509044600 | 47 | 54 | 3.0 | 6.0 | 0.00 | 0.00 | 0.00 | 82 | 1017.3 |
| 20260509044059 | 46 | 58 | 3.0 | 5.0 | 0.00 | 0.00 | 0.00 | 84 | 1017.4 |
| 20260509043558 | 45 | 34 | 2.0 | 5.0 | 0.00 | 0.00 | 0.00 | 82 | 1017.5 |
| 20260509043102 | 46 | 41 | 2.0 | 4.0 | 0.00 | 0.00 | 0.00 | 79 | 1017.3 |
| 20260509042558 | 46 | 0 | 0.0 | 2.0 | 0.00 | 0.00 | 0.00 | 77 | 1017.4 |
| 20260509042058 | 47 | 0 | 0.0 | 3.0 | 0.00 | 0.00 | 0.00 | 74 | 1017.3 |
| 20260509041600 | 49 | 0 | 0.0 | 4.0 | 0.00 | 0.00 | 0.00 | 72 | 1017.5 |
| 20260509041100 | 49 | 61 | 2.0 | 7.0 | 0.00 | 0.00 | 0.00 | 76 | 1017.4 |
| 20260509040558 | 50 | 48 | 3.0 | 7.0 | 0.00 | 0.00 | 0.00 | 75 | 1017.3 |
| 20260509040100 | 50 | 71 | 3.0 | 8.0 | 0.00 | 0.00 | 0.00 | 75 | 1017.4 |
| 20260509035558 | 50 | 62 | 3.0 | 8.0 | 0.00 | 0.00 | 0.00 | 75 | 1017.3 |
| 20260509035059 | 50 | 67 | 3.0 | 8.0 | 0.00 | 0.00 | 0.00 | 75 | 1017.3 |
| 20260509034558 | 50 | 62 | 4.0 | 8.0 | 0.00 | 0.00 | 0.00 | 75 | 1017.4 |
| 20260509034100 | 49 | 55 | 3.0 | 7.0 | 0.00 | 0.00 | 0.00 | 75 | 1017.3 |
| 20260509033559 | 50 | 74 | 3.0 | 5.0 | 0.00 | 0.00 | 0.00 | 75 | 1017.3 |
| 20260509033100 | 50 | 47 | 3.0 | 6.0 | 0.00 | 0.00 | 0.00 | 74 | 1017.3 |
| 20260509032559 | 50 | 72 | 3.0 | 9.0 | 0.00 | 0.00 | 0.00 | 74 | 1017.3 |
| 20260509032102 | 50 | 75 | 5.0 | 9.0 | 0.00 | 0.00 | 0.00 | 74 | 1017.3 |
| 20260509031623 | 50 | 51 | 5.0 | 9.0 | 0.00 | 0.00 | 0.00 | 75 | 1017.4 |
| 20260509031058 | 50 | 71 | 5.0 | 9.0 | 0.00 | 0.00 | 0.00 | 76 | 1017.3 |
| 20260509030559 | 49 | 46 | 4.0 | 9.0 | 0.00 | 0.00 | 0.00 | 76 | 1017.4 |
| 20260509025602 | 48 | 69 | 3.0 | 7.0 | 0.00 | 0.00 | 0.00 | 80 | 1017.4 |
| 20260509025058 | 48 | 53 | 3.0 | 5.0 | 0.00 | 0.00 | 0.00 | 81 | 1017.4 |
| 20260509024604 | 47 | 48 | 2.0 | 6.0 | 0.00 | 0.00 | 0.00 | 83 | 1017.5 |
| 20260509024100 | 47 | 51 | 3.0 | 6.0 | 0.00 | 0.00 | 0.00 | 84 | 1017.5 |
| 20260509023558 | 46 | 61 | 3.0 | 8.0 | 0.00 | 0.00 | 0.00 | 86 | 1017.5 |
| 20260509023102 | 44 | 68 | 4.0 | 8.0 | 0.00 | 0.00 | 0.00 | 88 | 1017.4 |
| 20260509022559 | 44 | 59 | 2.0 | 7.0 | 0.00 | 0.00 | 0.00 | 87 | 1017.5 |
| 20260509022100 | 44 | 40 | 3.0 | 7.0 | 0.00 | 0.00 | 0.00 | 85 | 1017.5 |
| 20260509021559 | 44 | 48 | 1.0 | 4.0 | 0.00 | 0.00 | 0.00 | 84 | 1017.5 |
| 20260509021059 | 45 | 175 | 0.0 | 1.0 | 0.00 | 0.00 | 0.00 | 84 | 1017.5 |
| 20260509020558 | 45 | 0 | 0.0 | 1.0 | 0.00 | 0.00 | 0.00 | 84 | 1017.6 |
| 20260509020058 | 45 | 0 | 0.0 | 1.0 | 0.00 | 0.00 | 0.00 | 84 | 1017.5 |
| 20260509015558 | 46 | 0 | 0.0 | 0.0 | 0.00 | 0.00 | 0.00 | 83 | 1017.6 |
| 20260509015059 | 46 | 0 | 0.0 | 0.0 | 0.00 | 0.00 | 0.00 | 82 | 1017.5 |
| 20260509014600 | 47 | 0 | 0.0 | 0.0 | 0.00 | 0.00 | 0.00 | 81 | 1017.5 |
| 20260509014058 | 47 | 0 | 0.0 | 1.0 | 0.00 | 0.00 | 0.00 | 79 | 1017.6 |
| 20260509013558 | 48 | 0 | 0.0 | 1.0 | 0.00 | 0.00 | 0.00 | 78 | 1017.6 |
| 20260509013110 | 48 | 0 | 0.0 | 2.0 | 0.00 | 0.00 | 0.00 | 77 | 1017.6 |
| 20260509012558 | 49 | 0 | 0.0 | 2.0 | 0.00 | 0.00 | 0.00 | 77 | 1017.6 |
| 20260509012058 | 50 | 184 | 0.0 | 3.0 | 0.00 | 0.00 | 0.00 | 75 | 1017.5 |
| 20260509011601 | 51 | 184 | 0.0 | 4.0 | 0.00 | 0.00 | 0.00 | 74 | 1017.5 |
| 20260509011058 | 51 | 0 | 1.0 | 5.0 | 0.00 | 0.00 | 0.00 | 74 | 1017.5 |
| 20260509010558 | 52 | 0 | 0.0 | 5.0 | 0.00 | 0.00 | 0.00 | 73 | 1017.6 |
| 20260509010056 | 52 | 48 | 3.0 | 7.0 | 0.00 | 0.00 | 0.00 | 74 | 1017.5 |
| 20260509005558 | 52 | 64 | 3.0 | 7.0 | 0.00 | 0.00 | 0.00 | 74 | 1017.5 |
| 20260509005058 | 52 | 47 | 3.0 | 5.0 | 0.00 | 0.00 | 0.00 | 74 | 1017.5 |
| 20260509004557 | 52 | 38 | 2.0 | 5.0 | 0.00 | 0.00 | 0.00 | 74 | 1017.5 |
| 20260509004059 | 52 | 51 | 3.0 | 5.0 | 0.00 | 0.00 | 0.00 | 75 | 1017.4 |
| 20260509003559 | 51 | 51 | 2.0 | 5.0 | 0.00 | 0.00 | 0.00 | 75 | 1017.5 |
| 20260509003100 | 51 | 51 | 3.0 | 6.0 | 0.00 | 0.00 | 0.00 | 75 | 1017.5 |
| 20260509002601 | 52 | 63 | 2.0 | 6.0 | 0.00 | 0.00 | 0.00 | 75 | 1017.5 |
| 20260509002058 | 52 | 51 | 3.0 | 6.0 | 0.00 | 0.00 | 0.00 | 75 | 1017.5 |
| 20260509001600 | 52 | 42 | 3.0 | 6.0 | 0.00 | 0.00 | 0.00 | 76 | 1017.5 |
| 20260509001058 | 52 | 49 | 3.0 | 6.0 | 0.00 | 0.00 | 0.00 | 75 | 1017.7 |
| 20260509000558 | 52 | 57 | 3.0 | 6.0 | 0.00 | 0.00 | 0.00 | 75 | 1017.6 |
| 20260509000109 | 52 | 28 | 3.0 | 6.0 | 0.00 | 0.00 | 0.00 | 76 | 1017.6 |
| 20260508235558 | 52 | 56 | 3.0 | 6.0 | 0.00 | 0.00 | 0.00 | 76 | 1017.6 |
| 20260508235103 | 52 | 45 | 4.0 | 6.0 | 0.00 | 0.00 | 0.00 | 76 | 1017.5 |
| 20260508234609 | 51 | 51 | 3.0 | 6.0 | 0.00 | 0.00 | 0.00 | 77 | 1017.6 |
| 20260508234100 | 51 | 45 | 3.0 | 6.0 | 0.00 | 0.00 | 0.00 | 78 | 1017.7 |
| 20260508233558 | 50 | 69 | 3.0 | 6.0 | 0.00 | 0.00 | 0.00 | 80 | 1017.6 |
| 20260508233101 | 49 | 56 | 3.0 | 5.0 | 0.00 | 0.00 | 0.00 | 82 | 1017.6 |
| 20260508232559 | 48 | 42 | 3.0 | 5.0 | 0.00 | 0.00 | 0.00 | 84 | 1017.6 |
| 20260508232058 | 48 | 42 | 2.0 | 4.0 | 0.00 | 0.00 | 0.00 | 82 | 1017.5 |
| 20260508231559 | 48 | 0 | 0.0 | 2.0 | 0.00 | 0.00 | 0.00 | 80 | 1017.6 |
| 20260508231059 | 49 | 0 | 0.0 | 2.0 | 0.00 | 0.00 | 0.00 | 79 | 1017.7 |
| 20260508230559 | 49 | 0 | 0.0 | 2.0 | 0.00 | 0.00 | 0.00 | 77 | 1017.6 |
| 20260508230104 | 50 | 41 | 0.0 | 3.0 | 0.00 | 0.00 | 0.00 | 79 | 1017.5 |
| 20260508225558 | 50 | 45 | 1.0 | 3.0 | 0.00 | 0.00 | 0.00 | 79 | 1017.6 |
| 20260508225059 | 50 | 60 | 1.0 | 4.0 | 0.00 | 0.00 | 0.00 | 79 | 1017.8 |
| 20260508224559 | 50 | 57 | 1.0 | 4.0 | 0.00 | 0.00 | 0.00 | 79 | 1017.7 |
| 20260508224058 | 50 | 63 | 0.0 | 0.0 | 0.00 | 0.00 | 0.00 | 79 | 1017.6 |
| 20260508223558 | 49 | 0 | 0.0 | 0.0 | 0.00 | 0.00 | 0.00 | 80 | 1017.7 |
| 20260508223058 | 49 | 0 | 0.0 | 0.0 | 0.00 | 0.00 | 0.00 | 80 | 1017.8 |
| 20260508222558 | 49 | 0 | 0.0 | 0.0 | 0.00 | 0.00 | 0.00 | 79 | 1017.7 |
| 20260508222059 | 49 | 0 | 0.0 | 0.0 | 0.00 | 0.00 | 0.00 | 79 | 1017.8 |
| 20260508221600 | 50 | 0 | 0.0 | 0.0 | 0.00 | 0.00 | 0.00 | 79 | 1017.7 |
| 20260508221059 | 50 | 0 | 0.0 | 0.0 | 0.00 | 0.00 | 0.00 | 78 | 1017.7 |
| 20260508220601 | 51 | 0 | 0.0 | 0.0 | 0.00 | 0.00 | 0.00 | 76 | 1017.8 |
| 20260508220057 | 51 | 0 | 0.0 | 0.0 | 0.00 | 0.00 | 0.00 | 75 | 1017.8 |
| 20260508215558 | 52 | 0 | 0.0 | 0.0 | 0.00 | 0.00 | 0.00 | 74 | 1017.8 |
| 20260508215059 | 53 | 0 | 0.0 | 0.0 | 0.00 | 0.00 | 0.00 | 70 | 1017.8 |
| 20260508214611 | 54 | 0 | 0.0 | 2.0 | 0.00 | 0.00 | 0.00 | 71 | 1017.8 |
| 20260508214059 | 54 | 0 | 0.0 | 2.0 | 0.00 | 0.00 | 0.00 | 71 | 1017.7 |
| 20260508213600 | 54 | 0 | 1.0 | 2.0 | 0.00 | 0.00 | 0.00 | 70 | 1017.6 |
| 20260508213116 | 54 | 96 | 1.0 | 2.0 | 0.00 | 0.00 | 0.00 | 69 | 1017.6 |
| 20260508212603 | 55 | 96 | 1.0 | 2.0 | 0.00 | 0.00 | 0.00 | 69 | 1017.5 |
| 20260508212058 | 55 | 96 | 1.0 | 2.0 | 0.00 | 0.00 | 0.00 | 69 | 1017.5 |
| 20260508211601 | 55 | 116 | 1.0 | 2.0 | 0.00 | 0.00 | 0.00 | 69 | 1017.5 |
| 20260508211103 | 55 | 104 | 1.0 | 2.0 | 0.00 | 0.00 | 0.00 | 69 | 1017.5 |
| 20260508210602 | 55 | 118 | 1.0 | 2.0 | 0.00 | 0.00 | 0.00 | 69 | 1017.5 |
| 20260508210059 | 56 | 110 | 1.0 | 2.0 | 0.00 | 0.00 | 0.00 | 68 | 1017.5 |
| 20260508205558 | 56 | 0 | 0.0 | 0.0 | 0.00 | 0.00 | 0.00 | 68 | 1017.4 |
| 20260508205059 | 56 | 0 | 0.0 | 0.0 | 0.00 | 0.00 | 0.00 | 67 | 1017.5 |
| 20260508204619 | 57 | 0 | 0.0 | 2.0 | 0.00 | 0.00 | 0.00 | 67 | 1017.5 |
| 20260508204100 | 57 | 0 | 0.0 | 2.0 | 0.00 | 0.00 | 0.00 | 66 | 1017.4 |
| 20260508203556 | 57 | 0 | 1.0 | 3.0 | 0.00 | 0.00 | 0.00 | 66 | 1017.4 |
| 20260508203102 | 57 | 111 | 1.0 | 6.0 | 0.00 | 0.00 | 0.00 | 66 | 1017.3 |
| 20260508202559 | 58 | 124 | 1.0 | 6.0 | 0.00 | 0.00 | 0.00 | 66 | 1017.3 |
| 20260508202059 | 58 | 119 | 2.0 | 6.0 | 0.00 | 0.00 | 0.00 | 65 | 1017.3 |
| 20260508201610 | 58 | 156 | 2.0 | 6.0 | 0.00 | 0.00 | 0.00 | 65 | 1017.2 |
| 20260508201104 | 58 | 101 | 1.0 | 6.0 | 0.00 | 0.00 | 0.00 | 65 | 1017.1 |
| 20260508200558 | 58 | 119 | 2.0 | 6.0 | 0.00 | 0.00 | 0.00 | 65 | 1017.0 |
| 20260508200135 | 58 | 110 | 1.0 | 4.0 | 0.00 | 0.00 | 0.00 | 65 | 1017.1 |
| 20260508195559 | 59 | 117 | 1.0 | 6.0 | 0.00 | 0.00 | 0.00 | 65 | 1016.9 |
| 20260508195059 | 59 | 153 | 1.0 | 7.0 | 0.00 | 0.00 | 0.00 | 66 | 1016.9 |
| 20260508194559 | 59 | 169 | 2.0 | 7.0 | 0.00 | 0.00 | 0.00 | 66 | 1016.8 |
| 20260508194058 | 59 | 137 | 2.0 | 6.0 | 0.00 | 0.00 | 0.00 | 66 | 1016.6 |
| 20260508193559 | 60 | 128 | 1.0 | 6.0 | 0.00 | 0.00 | 0.00 | 66 | 1016.6 |
| 20260508193058 | 60 | 118 | 2.0 | 6.0 | 0.00 | 0.00 | 0.00 | 65 | 1016.5 |
| 20260508192559 | 60 | 126 | 1.0 | 4.0 | 0.00 | 0.00 | 0.00 | 65 | 1016.5 |
| 20260508192059 | 60 | 0 | 0.0 | 4.0 | 0.00 | 0.00 | 0.00 | 64 | 1016.4 |
| 20260508191559 | 61 | 151 | 1.0 | 3.0 | 0.00 | 0.00 | 0.00 | 64 | 1016.3 |
| 20260508191058 | 61 | 155 | 1.0 | 4.0 | 0.00 | 0.00 | 0.00 | 64 | 1016.2 |
| 20260508190600 | 61 | 140 | 1.0 | 4.0 | 0.00 | 0.00 | 0.00 | 63 | 1016.2 |
| 20260508190105 | 62 | 152 | 1.0 | 4.0 | 0.00 | 0.00 | 0.00 | 63 | 1016.2 |
| 20260508185558 | 62 | 0 | 0.0 | 4.0 | 0.00 | 0.00 | 0.00 | 62 | 1016.1 |
| 20260508185058 | 62 | 0 | 0.0 | 5.0 | 0.00 | 0.00 | 0.00 | 62 | 1016.1 |
| 20260508184558 | 63 | 191 | 2.0 | 5.0 | 0.00 | 0.00 | 0.00 | 62 | 1016.1 |
| 20260508184100 | 63 | 127 | 1.0 | 5.0 | 0.00 | 0.00 | 0.00 | 63 | 1016.0 |
| 20260508183559 | 63 | 155 | 2.0 | 5.0 | 0.00 | 0.00 | 0.00 | 62 | 1016.0 |
| 20260508183105 | 63 | 182 | 2.0 | 6.0 | 0.00 | 0.00 | 0.00 | 62 | 1015.9 |
| 20260508182559 | 63 | 175 | 2.0 | 6.0 | 0.00 | 0.00 | 0.00 | 60 | 1015.9 |
| 20260508182058 | 63 | 171 | 2.0 | 4.0 | 0.00 | 0.00 | 0.00 | 61 | 1015.9 |
| 20260508181613 | 64 | 193 | 3.0 | 4.0 | 0.00 | 0.00 | 0.00 | 61 | 1015.8 |
| 20260508181100 | 64 | 211 | 1.0 | 9.0 | 0.00 | 0.00 | 0.00 | 58 | 1015.7 |
| 20260508180602 | 64 | 194 | 2.0 | 9.0 | 0.00 | 0.00 | 0.00 | 59 | 1015.7 |
| 20260508180115 | 64 | 177 | 2.0 | 6.0 | 0.00 | 0.00 | 0.00 | 56 | 1015.5 |
| 20260508175559 | 65 | 197 | 3.0 | 6.0 | 0.00 | 0.00 | 0.00 | 57 | 1015.6 |
| 20260508175058 | 65 | 228 | 3.0 | 8.0 | 0.00 | 0.00 | 0.00 | 55 | 1015.5 |
| 20260508174607 | 65 | 210 | 4.0 | 9.0 | 0.00 | 0.00 | 0.00 | 54 | 1015.3 |
| 20260508174101 | 65 | 184 | 4.0 | 9.0 | 0.00 | 0.00 | 0.00 | 55 | 1015.3 |
| 20260508173559 | 65 | 181 | 4.0 | 8.0 | 0.00 | 0.00 | 0.00 | 53 | 1015.3 |
| 20260508173058 | 66 | 178 | 3.0 | 8.0 | 0.00 | 0.00 | 0.00 | 54 | 1015.3 |
| 20260508172559 | 66 | 209 | 2.0 | 8.0 | 0.00 | 0.00 | 0.00 | 51 | 1015.2 |
| 20260508172059 | 66 | 175 | 3.0 | 8.0 | 0.00 | 0.00 | 0.00 | 54 | 1015.2 |
| 20260508171557 | 66 | 184 | 5.0 | 8.0 | 0.00 | 0.00 | 0.00 | 51 | 1015.2 |
| 20260508171059 | 67 | 188 | 4.0 | 10.0 | 0.00 | 0.00 | 0.00 | 54 | 1015.1 |
| 20260508170559 | 67 | 203 | 5.0 | 11.0 | 0.00 | 0.00 | 0.00 | 49 | 1015.2 |
| 20260508170058 | 67 | 192 | 5.0 | 12.0 | 0.00 | 0.00 | 0.00 | 48 | 1015.1 |
| 20260508165558 | 67 | 185 | 6.0 | 12.0 | 0.00 | 0.00 | 0.00 | 51 | 1015.1 |
| 20260508165059 | 67 | 178 | 5.0 | 11.0 | 0.00 | 0.00 | 0.00 | 52 | 1015.0 |
| 20260508164558 | 67 | 178 | 4.0 | 10.0 | 0.00 | 0.00 | 0.00 | 50 | 1015.1 |
| 20260508164059 | 67 | 169 | 4.0 | 11.0 | 0.00 | 0.00 | 0.00 | 50 | 1015.0 |
| 20260508163602 | 67 | 203 | 3.0 | 11.0 | 0.00 | 0.00 | 0.00 | 50 | 1015.1 |
| 20260508163057 | 68 | 192 | 5.0 | 11.0 | 0.00 | 0.00 | 0.00 | 49 | 1014.9 |
| 20260508162558 | 68 | 210 | 5.0 | 11.0 | 0.00 | 0.00 | 0.00 | 49 | 1015.0 |
| 20260508162059 | 68 | 190 | 4.0 | 12.0 | 0.00 | 0.00 | 0.00 | 51 | 1014.9 |
| 20260508161602 | 68 | 162 | 4.0 | 12.0 | 0.00 | 0.00 | 0.00 | 52 | 1014.9 |
| 20260508161058 | 67 | 186 | 4.0 | 10.0 | 0.00 | 0.00 | 0.00 | 49 | 1014.9 |
| 20260508160559 | 67 | 192 | 5.0 | 15.0 | 0.00 | 0.00 | 0.00 | 50 | 1015.0 |
| 20260508160057 | 67 | 191 | 4.0 | 15.0 | 0.00 | 0.00 | 0.00 | 51 | 1015.0 |
| 20260508155558 | 67 | 185 | 6.0 | 15.0 | 0.00 | 0.00 | 0.00 | 48 | 1015.0 |
| 20260508155058 | 67 | 173 | 7.0 | 14.0 | 0.00 | 0.00 | 0.00 | 48 | 1015.1 |
| 20260508154558 | 67 | 197 | 6.0 | 12.0 | 0.00 | 0.00 | 0.00 | 50 | 1015.1 |
| 20260508154104 | 68 | 195 | 5.0 | 12.0 | 0.00 | 0.00 | 0.00 | 50 | 1015.0 |
| 20260508153559 | 68 | 192 | 5.0 | 12.0 | 0.00 | 0.00 | 0.00 | 50 | 1015.1 |
| 20260508153100 | 69 | 202 | 6.0 | 15.0 | 0.00 | 0.00 | 0.00 | 49 | 1015.0 |
| 20260508152603 | 69 | 142 | 4.0 | 16.0 | 0.00 | 0.00 | 0.00 | 49 | 1015.0 |
| 20260508152058 | 69 | 182 | 4.0 | 16.0 | 0.00 | 0.00 | 0.00 | 47 | 1015.2 |
| 20260508151606 | 69 | 217 | 6.0 | 15.0 | 0.00 | 0.00 | 0.00 | 48 | 1015.2 |
| 20260508151059 | 68 | 161 | 5.0 | 15.0 | 0.00 | 0.00 | 0.00 | 51 | 1015.3 |
| 20260508150558 | 69 | 186 | 6.0 | 15.0 | 0.00 | 0.00 | 0.00 | 46 | 1015.1 |
| 20260508150058 | 69 | 157 | 6.0 | 15.0 | 0.00 | 0.00 | 0.00 | 49 | 1015.2 |
| 20260508145558 | 69 | 177 | 7.0 | 14.0 | 0.00 | 0.00 | 0.00 | 49 | 1015.2 |
| 20260508145058 | 69 | 229 | 6.0 | 15.0 | 0.00 | 0.00 | 0.00 | 51 | 1015.3 |
| 20260508144600 | 69 | 158 | 7.0 | 15.0 | 0.00 | 0.00 | 0.00 | 50 | 1015.3 |
| 20260508144058 | 69 | 185 | 6.0 | 13.0 | 0.00 | 0.00 | 0.00 | 51 | 1015.3 |
| 20260508143558 | 68 | 180 | 4.0 | 14.0 | 0.00 | 0.00 | 0.00 | 53 | 1015.2 |
| 20260508143100 | 68 | 217 | 7.0 | 14.0 | 0.00 | 0.00 | 0.00 | 52 | 1015.2 |
| 20260508142558 | 68 | 217 | 8.0 | 14.0 | 0.00 | 0.00 | 0.00 | 50 | 1015.2 |
| 20260508142059 | 68 | 205 | 4.0 | 12.0 | 0.00 | 0.00 | 0.00 | 54 | 1015.3 |
| 20260508141613 | 67 | 127 | 3.0 | 11.0 | 0.00 | 0.00 | 0.00 | 54 | 1015.2 |
| 20260508141059 | 67 | 197 | 5.0 | 15.0 | 0.00 | 0.00 | 0.00 | 54 | 1015.2 |
| 20260508140603 | 68 | 213 | 6.0 | 15.0 | 0.00 | 0.00 | 0.00 | 53 | 1015.2 |
| 20260508140114 | 68 | 151 | 7.0 | 13.0 | 0.00 | 0.00 | 0.00 | 54 | 1015.1 |
| 20260508135601 | 68 | 206 | 5.0 | 13.0 | 0.00 | 0.00 | 0.00 | 55 | 1015.2 |
| 20260508135059 | 68 | 201 | 6.0 | 13.0 | 0.00 | 0.00 | 0.00 | 53 | 1015.1 |
| 20260508134559 | 68 | 192 | 5.0 | 12.0 | 0.00 | 0.00 | 0.00 | 54 | 1015.1 |
| 20260508134058 | 68 | 159 | 5.0 | 12.0 | 0.00 | 0.00 | 0.00 | 55 | 1015.1 |
| 20260508133558 | 68 | 157 | 5.0 | 9.0 | 0.00 | 0.00 | 0.00 | 54 | 1015.0 |
| 20260508133103 | 68 | 180 | 3.0 | 12.0 | 0.00 | 0.00 | 0.00 | 51 | 1015.0 |
| 20260508132558 | 68 | 141 | 2.0 | 16.0 | 0.00 | 0.00 | 0.00 | 58 | 1015.0 |
| 20260508132058 | 68 | 163 | 5.0 | 16.0 | 0.00 | 0.00 | 0.00 | 52 | 1015.0 |
| 20260508131606 | 68 | 163 | 5.0 | 14.0 | 0.00 | 0.00 | 0.00 | 55 | 1015.0 |
| 20260508131059 | 67 | 148 | 5.0 | 14.0 | 0.00 | 0.00 | 0.00 | 58 | 1015.0 |
| 20260508130602 | 66 | 226 | 4.0 | 11.0 | 0.00 | 0.00 | 0.00 | 58 | 1015.2 |
| 20260508130058 | 66 | 198 | 5.0 | 13.0 | 0.00 | 0.00 | 0.00 | 59 | 1015.2 |
| 20260508125559 | 66 | 203 | 5.0 | 15.0 | 0.00 | 0.00 | 0.00 | 58 | 1015.2 |
| 20260508125059 | 66 | 181 | 6.0 | 16.0 | 0.00 | 0.00 | 0.00 | 57 | 1015.3 |
| 20260508124558 | 67 | 139 | 7.0 | 16.0 | 0.00 | 0.00 | 0.00 | 54 | 1015.2 |
| 20260508124058 | 67 | 117 | 5.0 | 14.0 | 0.00 | 0.00 | 0.00 | 58 | 1015.1 |
| 20260508123559 | 67 | 209 | 7.0 | 14.0 | 0.00 | 0.00 | 0.00 | 60 | 1015.2 |
| 20260508123058 | 67 | 178 | 7.0 | 18.0 | 0.00 | 0.00 | 0.00 | 57 | 1015.3 |
| 20260508122558 | 67 | 171 | 7.0 | 18.0 | 0.00 | 0.00 | 0.00 | 61 | 1015.2 |
| 20260508122059 | 66 | 194 | 6.0 | 18.0 | 0.00 | 0.00 | 0.00 | 59 | 1015.2 |
| 20260508121607 | 66 | 163 | 7.0 | 13.0 | 0.00 | 0.00 | 0.00 | 54 | 1015.1 |
| 20260508121102 | 66 | 157 | 6.0 | 11.0 | 0.00 | 0.00 | 0.00 | 57 | 1015.1 |
| 20260508120559 | 66 | 185 | 2.0 | 10.0 | 0.00 | 0.00 | 0.00 | 61 | 1015.2 |
| 20260508115559 | 65 | 192 | 5.0 | 10.0 | 0.00 | 0.00 | 0.00 | 67 | 1015.1 |
| 20260508115058 | 64 | 127 | 4.0 | 10.0 | 0.00 | 0.00 | 0.00 | 63 | 1015.1 |
| 20260508114559 | 64 | 130 | 2.0 | 8.0 | 0.00 | 0.00 | 0.00 | 64 | 1015.1 |
| 20260508114058 | 64 | 151 | 3.0 | 8.0 | 0.00 | 0.00 | 0.00 | 67 | 1015.2 |
| 20260508113559 | 64 | 94 | 2.0 | 13.0 | 0.00 | 0.00 | 0.00 | 65 | 1015.2 |
| 20260508113114 | 63 | 124 | 3.0 | 13.0 | 0.00 | 0.00 | 0.00 | 66 | 1015.2 |
| 20260508112600 | 63 | 181 | 4.0 | 9.0 | 0.00 | 0.00 | 0.00 | 69 | 1015.3 |
| 20260508112058 | 63 | 118 | 4.0 | 9.0 | 0.00 | 0.00 | 0.00 | 69 | 1015.3 |
| 20260508111607 | 62 | 200 | 2.0 | 10.0 | 0.00 | 0.00 | 0.00 | 70 | 1015.3 |
| 20260508111058 | 63 | 185 | 4.0 | 10.0 | 0.00 | 0.00 | 0.00 | 68 | 1015.3 |
| 20260508110558 | 63 | 143 | 2.0 | 10.0 | 0.00 | 0.00 | 0.00 | 70 | 1015.4 |
| 20260508110105 | 62 | 182 | 2.0 | 10.0 | 0.00 | 0.00 | 0.00 | 71 | 1015.2 |
| 20260508105558 | 62 | 120 | 5.0 | 10.0 | 0.00 | 0.00 | 0.00 | 70 | 1015.3 |
| 20260508105058 | 61 | 173 | 4.0 | 9.0 | 0.00 | 0.00 | 0.00 | 70 | 1015.3 |
| 20260508104603 | 61 | 0 | 3.0 | 9.0 | 0.00 | 0.00 | 0.00 | 70 | 1015.2 |
| 20260508104101 | 62 | 161 | 3.0 | 12.0 | 0.00 | 0.00 | 0.00 | 71 | 1015.3 |
| 20260508103559 | 61 | 134 | 6.0 | 12.0 | 0.00 | 0.00 | 0.00 | 71 | 1015.4 |
| 20260508103141 | 60 | 144 | 3.0 | 11.0 | 0.00 | 0.00 | 0.00 | 75 | 1015.3 |
| 20260508102558 | 61 | 46 | 5.0 | 11.0 | 0.00 | 0.00 | 0.00 | 71 | 1015.3 |
| 20260508102059 | 61 | 70 | 2.0 | 11.0 | 0.00 | 0.00 | 0.00 | 76 | 1015.4 |
| 20260508101627 | 59 | 83 | 4.0 | 8.0 | 0.00 | 0.00 | 0.00 | 74 | 1015.5 |
| 20260508101059 | 59 | 114 | 1.0 | 4.0 | 0.00 | 0.00 | 0.00 | 75 | 1015.5 |
| 20260508100558 | 59 | 46 | 1.0 | 7.0 | 0.00 | 0.00 | 0.00 | 74 | 1015.5 |
| 20260508100109 | 59 | 123 | 2.0 | 8.0 | 0.00 | 0.00 | 0.00 | 76 | 1015.4 |
| 20260508095601 | 59 | 157 | 4.0 | 8.0 | 0.00 | 0.00 | 0.00 | 73 | 1015.5 |
| 20260508095058 | 60 | 58 | 4.0 | 7.0 | 0.00 | 0.00 | 0.00 | 74 | 1015.3 |
| 20260508094617 | 59 | 103 | 2.0 | 7.0 | 0.00 | 0.00 | 0.00 | 78 | 1015.3 |
| 20260508094058 | 58 | 114 | 1.0 | 7.0 | 0.00 | 0.00 | 0.00 | 81 | 1015.5 |
| 20260508093558 | 57 | 79 | 2.0 | 7.0 | 0.00 | 0.00 | 0.00 | 79 | 1015.5 |
| 20260508093101 | 56 | 87 | 1.0 | 7.0 | 0.00 | 0.00 | 0.00 | 79 | 1015.5 |
| 20260508092559 | 57 | 86 | 2.0 | 7.0 | 0.00 | 0.00 | 0.00 | 78 | 1015.6 |
| 20260508092101 | 57 | 96 | 1.0 | 7.0 | 0.00 | 0.00 | 0.00 | 79 | 1015.6 |
| 20260508091557 | 57 | 98 | 3.0 | 7.0 | 0.00 | 0.00 | 0.00 | 78 | 1015.5 |
| 20260508091059 | 56 | 98 | 2.0 | 4.0 | 0.00 | 0.00 | 0.00 | 80 | 1015.6 |
| 20260508090559 | 56 | 80 | 0.0 | 4.0 | 0.00 | 0.00 | 0.00 | 80 | 1015.5 |
| 20260508090110 | 56 | 157 | 1.0 | 7.0 | 0.00 | 0.00 | 0.00 | 80 | 1015.6 |
| 20260508085558 | 56 | 155 | 2.0 | 7.0 | 0.00 | 0.00 | 0.00 | 80 | 1015.6 |
| 20260508085058 | 56 | 128 | 1.0 | 6.0 | 0.00 | 0.00 | 0.00 | 80 | 1015.5 |
| 20260508084611 | 56 | 183 | 1.0 | 5.0 | 0.00 | 0.00 | 0.00 | 81 | 1015.5 |
| 20260508084059 | 56 | 130 | 0.0 | 5.0 | 0.00 | 0.00 | 0.00 | 81 | 1015.6 |
| 20260508083601 | 55 | 162 | 1.0 | 7.0 | 0.00 | 0.00 | 0.00 | 80 | 1015.6 |
| 20260508083123 | 55 | 0 | 1.0 | 8.0 | 0.00 | 0.00 | 0.00 | 80 | 1015.5 |
| 20260508082558 | 55 | 109 | 3.0 | 8.0 | 0.00 | 0.00 | 0.00 | 80 | 1015.6 |
| 20260508082058 | 56 | 122 | 3.0 | 9.0 | 0.00 | 0.00 | 0.00 | 79 | 1015.6 |
| 20260508081559 | 56 | 98 | 3.0 | 9.0 | 0.00 | 0.00 | 0.00 | 78 | 1015.6 |
| 20260508081058 | 56 | 72 | 3.0 | 9.0 | 0.00 | 0.00 | 0.00 | 79 | 1015.6 |
| 20260508080601 | 56 | 142 | 2.0 | 9.0 | 0.00 | 0.00 | 0.00 | 79 | 1015.6 |
| 20260508080059 | 56 | 175 | 1.0 | 7.0 | 0.00 | 0.00 | 0.00 | 80 | 1015.4 |
| 20260508075559 | 56 | 155 | 2.0 | 7.0 | 0.00 | 0.00 | 0.00 | 77 | 1015.5 |
| 20260508075058 | 56 | 101 | 3.0 | 7.0 | 0.00 | 0.00 | 0.00 | 76 | 1015.4 |
| 20260508074600 | 57 | 142 | 2.0 | 8.0 | 0.00 | 0.00 | 0.00 | 76 | 1015.3 |
| 20260508074058 | 57 | 141 | 2.0 | 8.0 | 0.00 | 0.00 | 0.00 | 75 | 1015.2 |
| 20260508073558 | 57 | 93 | 4.0 | 8.0 | 0.00 | 0.00 | 0.00 | 75 | 1015.2 |
| 20260508073103 | 57 | 51 | 2.0 | 8.0 | 0.00 | 0.00 | 0.00 | 74 | 1015.1 |
| 20260508072558 | 56 | 107 | 3.0 | 8.0 | 0.00 | 0.00 | 0.00 | 75 | 1015.0 |
| 20260508072058 | 56 | 94 | 3.0 | 7.0 | 0.00 | 0.00 | 0.00 | 77 | 1015.0 |
| 20260508071559 | 55 | 80 | 3.0 | 5.0 | 0.00 | 0.00 | 0.00 | 78 | 1015.0 |
| 20260508071058 | 55 | 67 | 1.0 | 4.0 | 0.00 | 0.00 | 0.00 | 78 | 1015.0 |
| 20260508070558 | 55 | 80 | 1.0 | 4.0 | 0.00 | 0.00 | 0.00 | 78 | 1015.1 |
| 20260508070101 | 54 | 32 | 1.0 | 3.0 | 0.00 | 0.00 | 0.00 | 80 | 1015.2 |
| 20260508065600 | 53 | 0 | 0.0 | 0.0 | 0.00 | 0.00 | 0.00 | 86 | 1015.1 |
| 20260508065059 | 52 | 0 | 0.0 | 0.0 | 0.00 | 0.00 | 0.00 | 86 | 1015.1 |
| 20260508064615 | 52 | 0 | 0.0 | 0.0 | 0.00 | 0.00 | 0.00 | 85 | 1015.2 |
| 20260508064059 | 52 | 0 | 0.0 | 0.0 | 0.00 | 0.00 | 0.00 | 86 | 1015.2 |
| 20260508063559 | 52 | 0 | 0.0 | 3.0 | 0.00 | 0.00 | 0.00 | 85 | 1015.2 |
| 20260508063103 | 52 | 0 | 0.0 | 3.0 | 0.00 | 0.00 | 0.00 | 83 | 1015.2 |